Location: Newark
(47.3000°N, 8.0500°E)
Time: 03:57:47
(UTC+00:00)

OTV 5 (USA 277) - Pass Details

Date: 30 August 2019
Orbit: 295 x 339 km, 54.5° (Epoch: 08 September)

Event Time Altitude Azimuth Distance (km) Brightness Sun altitude
Rises 20:56:13 0° 298° (WNW) 1,996 ? -24.5°
Reaches altitude 10° 20:58:35 10° 321° (NW) 1,168 ? -24.8°
Enters shadow 20:59:17 14° 335° (NNW) 994 ? -24.8°
